sat.trackr.live / text

‹ back to catalog

GRBBETA

NORAD 60237 · 2024-128C

PAYLOAD ACTIVE UNKNOWN

§ Identity

Operator
Country
SVK
Launch date
2024-07-09
Launch site
FRGUI
Launch vehicle
Mass (kg)
RCS (m²)

Purposes: tech_demo

External: N2YO · Heavens-Above · Gunter

§ Orbital elements

Epoch: 2026-05-25T02:56:21.310368Z

Period
95.59 min
Inclination
61.9903°
Eccentricity
0.0043861
Mean motion
15.06422482 rev/d
Perigee alt
516.8 km
Apogee alt
577.5 km
Semi-major
6,925.3 km
B*
2.9231e-4
RAAN
297.1771°
Arg perigee
129.8908°
Mean anomaly
230.6054°
Rev number
10,279

§ Raw data

GRBBETA1 60237U 24128C   26145.12246887  .00004206  00000+0  29231-3 0  99922 60237  61.9903 297.1771 0043861 129.8908 230.6054 15.06422482102794

JSON: /api/v1/satellites/60237 · /tle

For live sub-satellite position, see the globe view (requires WebGL).

§ Visibility from observer

Set your observer location to see the next 7 days of passes ≥ 10°. The values pass through the URL so the page stays shareable.

No JS? Fill the form by hand. The geolocation button needs JavaScript.

§ Radio — SatNOGS DB

ModeDescriptionDownlinkUplink
FSK Mode S - FSK100k - MRC-100 2.405 GHz
CW Mode U - CW 436.785 MHz
GFSK Mode U - GFSK9k6 - AX.25 436.785 MHz
GFSK Mode U/U - GFSK9k6 - Digipeater - AX.25 436.785 MHz 436.785 MHz
GFSK Mode V - GFSK9k6 - AX.25 145.935 MHz
GFSK Mode V/V - GFSK9k6 - Digipeater - AX.25 145.935 MHz 145.935 MHz

6 transmitters · refreshed weekly from db.satnogs.org